[[{"header":{"parameterUnit":"m.s-1","parameterCategory":1,"la1":30.2991,"la2":30.254,"lo1":-89.0895,"lo2":-89.0444,"dy":0.0017,"dx":0.0017,"nx":28,"ny":28,"refTime":"2023-06-25T21:00:00:Z","depth":0,"parameterNumber":2,"parameterNumberName":"U-component_of_WINDS"},"data":[0,0,0,0,0,0,0,0,0,0,0,0,0,0,0,0,0,0,0,0,0,0,0,0,0,0,0,0,0,0,0,0,0,0,0,0,0,0,0,0,0,0,0,0,0,0,0,0,0,0,0,0,0,0,0,0,0,0,1.689,1.6891,0,1.7009,1.701,1.7012,1.699,1.6987,1.6985,1.6983,1.711,1.7115,1.7121,0,0,0,0,0,0,0,0,0,0,0,0,0,1.665,1.6654,1.689,1.6892,1.6893,1.7009,1.701,1.7012,1.699,1.6987,1.6985,1.6982,1.7108,1.7115,1.7121,0,0,0,0,0,0,0,0,0,0,0,0,0,1.676,1.6656,1.689,1.6896,1.6898,1.7008,1.701,1.7012,1.699,1.6987,1.6984,1.6981,1.7106,1.7114,1.7122,1.7236,0,0,1.7147,1.715,0,0,0,0,0,0,0,0,1.6754,1.6769,1.6894,1.6896,1.6898,1.6981,1.6972,1.7087,1.6991,1.6955,1.6983,1.6979,1.707,1.7081,1.711,1.7242,1.7247,1.7147,1.7152,1.7156,1.7158,0,0,0,0,0,0,0,1.6746,1.6764,1.6937,1.6895,1.6898,1.6894,1.6907,1.6994,1.7029,1.6958,1.6957,1.6971,1.7071,1.7103,1.7113,1.7249,1.7147,1.7154,1.7159,1.7162,1.7481,1.7485,0,0,0,0,0,0,1.6736,1.6757,1.6933,1.6941,1.6816,1.6901,1.6915,1.6958,1.7028,1.7036,1.6974,1.6969,1.709,1.7104,1.7118,1.7256,1.7156,1.7163,1.7168,1.7478,1.7482,1.7486,0,0,0,0,0,0,1.6731,1.6752,1.6929,1.6849,1.6871,1.6909,1.6957,1.6962,1.6993,1.704,1.7047,1.6999,1.7088,1.7106,1.7206,1.7261,1.7167,1.7174,1.7473,1.7479,1.7484,1.7534,0,0,0,0,0,0,1.6724,1.675,1.6792,1.685,1.6875,1.7014,1.696,1.6966,1.7007,1.7003,1.7066,1.7073,1.7087,1.7195,1.7214,1.727,1.718,1.7469,1.7476,1.7482,1.7528,1.7541,1.7552,0,0,0,0,0,1.6715,1.6803,1.6795,1.6816,1.6929,1.7017,1.7032,1.7045,1.7011,1.7055,1.7085,1.7071,1.7251,1.7205,1.7227,1.7286,1.7465,1.7474,1.7482,1.7523,1.7538,1.7552,0,0,0,0,0,0,1.6752,1.681,1.6802,1.691,1.6959,1.7013,1.7069,1.7061,1.7121,1.7115,1.713,1.7144,1.7247,1.7276,1.7224,1.74,1.7354,1.7367,1.7377,1.7393,1.7404,1.7396,1.7187,0,0,0,0,0,1.6773,1.6838,1.6886,1.6977,1.7001,1.7031,1.707,1.7075,1.7127,1.7148,1.7185,1.7238,1.7306,1.7351,1.7416,1.7532,1.7547,1.7583,1.7595,1.7605,1.7616,1.7682,1.7699,1.7513,1.7513,1.7513,0,0,1.6816,1.6856,1.6897,1.6985,1.7023,1.7093,1.7049,1.7123,1.7175,1.716,1.7257,1.7286,1.7345,1.7454,1.7504,1.7482,1.7671,1.7615,1.7622,1.7629,1.7692,1.7709,1.7725,1.7518,1.7517,1.7517,0,0,1.6931,1.6967,1.7047,1.7086,1.7144,1.7163,1.7182,1.7238,1.7257,1.7353,1.7344,1.7407,1.7524,1.7567,1.7604,1.7735,1.7726,1.7756,1.7819,1.7882,1.7897,1.791,1.7958,1.7975,1.7767,1.7767,1.7767,0,1.6978,1.708,1.709,1.7165,1.7205,1.7193,1.7275,1.7313,1.7391,1.7419,1.7393,1.754,1.7579,1.7698,1.773,1.776,1.7785,1.775,1.7893,1.7907,1.7919,1.7966,1.7984,1.7771,1.777,1.777,1.777,0,1.7136,1.7207,1.7265,1.7338,1.7385,1.7464,1.7487,1.7533,1.7534,1.7557,1.7657,1.7703,1.7778,1.7807,1.7809,1.7927,1.7912,1.7889,1.7843,1.794,1.7984,1.8002,1.7776,1.7774,1.7773,1.7773,0,0,1.7279,1.7355,1.7376,1.741,1.7473,1.7529,1.7608,1.7679,1.772,1.7773,1.7841,1.794,1.792,1.7962,1.797,1.8025,1.8128,1.7997,1.7998,1.8021,1.8263,1.8281,1.8301,1.8122,1.8125,1.8128,1.8259,0,1.74,1.7537,1.7548,1.7673,1.7739,1.7729,1.7798,1.7845,1.7868,1.793,1.7956,1.8026,1.7993,1.8019,1.8073,1.8104,1.8178,1.8095,1.8188,1.8191,1.8174,1.8324,1.8342,1.8463,1.8276,1.8279,1.8281,0,1.756,1.7617,1.7748,1.7802,1.783,1.7892,1.7959,1.8017,1.8071,1.8084,1.8132,1.8132,1.8215,1.8165,1.8281,1.8224,1.8263,1.8284,1.8289,1.83,1.8243,1.834,1.8502,1.8521,1.8308,1.8305,1.8304,0,1.7653,1.7762,1.7854,1.7883,1.7948,1.7992,1.8022,1.8072,1.8115,1.8174,1.8203,1.8271,1.8309,1.8364,1.8383,1.8344,1.85,1.845,1.8515,1.8515,1.8549,1.8547,1.8722,1.8572,1.8571,1.8571,1.857,0,1.7788,1.7869,1.7897,1.7954,1.8045,1.8057,1.8147,1.8175,1.822,1.8284,1.8279,1.834,1.8361,1.8426,1.8442,1.8537,1.8554,1.8569,1.8572,1.857,1.8568,1.8597,1.8589,1.8576,1.8575,1.8574,1.8573,0,1.7907,1.7929,1.8029,1.8082,1.8097,1.8162,1.8209,1.8265,1.8287,1.8368,1.8388,1.8423,1.8499,1.8523,1.8616,1.8626,1.8738,1.8733,1.8719,1.872,1.8784,1.8778,1.8985,1.9013,1.8842,1.8844,1.8845,0,1.7993,1.8055,1.8114,1.8155,1.8186,1.8253,1.8296,1.8311,1.8357,1.8423,1.8472,1.8547,1.8607,1.873,1.8765,1.8836,1.8834,1.8902,1.8845,1.8841,1.8838,1.8834,1.8842,1.8913,1.8915,1.8916,1.8917,0,1.8144,1.8151,1.8212,1.8278,1.8329,1.8382,1.8433,1.8468,1.849,1.8542,1.8619,1.8666,1.8759,1.8834,1.8907,1.8939,1.8934,1.8934,1.8953,1.8953,1.8943,1.8951,1.875,1.893,1.8929,1.8928,1.8927,1.8927,1.825,1.8305,1.8355,1.8424,1.8463,1.8511,1.8566,1.8595,1.8658,1.8734,1.874,1.8823,1.8877,1.8973,1.901,1.9077,1.9058,1.9085,1.9092,1.9099,1.9105,1.893,1.909,1.9089,1.9089,1.9089,1.9089,0,1.8402,1.8433,1.8496,1.8567,1.8621,1.8608,1.8664,1.8711,1.8784,1.8834,1.8893,1.8982,1.9055,1.9096,1.9169,1.9216,1.9215,1.9235,1.9232,1.9241,1.9117,1.9094,1.9234,1.9234,1.9234,1.9234,1.9234,1.9234,1.8487,1.8579,1.8593,1.8705,1.8737,1.8817,1.885,1.8895,1.8935,1.9034,1.9094,1.9119,1.9166,1.9243,1.931,1.932,1.9349,1.9371,1.938,1.9264,1.9249,1.9235,1.9213,1.9376,1.9377,1.9498,1.9499,1.95]},{"header":{"parameterUnit":"m.s-1","parameterCategory":1,"la1":30.2991,"la2":30.254,"lo1":-89.0895,"lo2":-89.0444,"dy":0.0017,"dx":0.0017,"nx":28,"ny":28,"refTime":"2023-06-25T21:00:00:Z","depth":0,"parameterNumber":3,"parameterNumberName":"V-component_of_WINDS"},"data":[0,0,0,0,0,0,0,0,0,0,0,0,0,0,0,0,0,0,0,0,0,0,0,0,0,0,0,0,0,0,0,0,0,0,0,0,0,0,0,0,0,0,0,0,0,0,0,0,0,0,0,0,0,0,0,0,0,0,2.2276,2.2276,0,2.2288,2.2288,2.2288,2.2245,2.2244,2.2243,2.2241,2.2254,2.2255,2.2257,0,0,0,0,0,0,0,0,0,0,0,0,0,2.2219,2.222,2.2276,2.2276,2.2276,2.2288,2.2288,2.2288,2.2245,2.2244,2.2242,2.2241,2.2253,2.2255,2.2257,0,0,0,0,0,0,0,0,0,0,0,0,0,2.2238,2.222,2.2276,2.2257,2.2255,2.2287,2.2288,2.2288,2.2246,2.2244,2.2242,2.224,2.2253,2.2255,2.2257,2.2309,0,0,2.2264,2.2265,0,0,0,0,0,0,0,0,2.2237,2.224,2.2259,2.2258,2.2256,2.2263,2.2272,2.2295,2.2246,2.2249,2.2241,2.2239,2.2258,2.226,2.2266,2.231,2.231,2.2264,2.2266,2.2267,2.2267,0,0,0,0,0,0,0,2.2236,2.224,2.2281,2.226,2.2258,2.2248,2.2248,2.2276,2.2264,2.2249,2.2246,2.2248,2.2257,2.2264,2.2266,2.2311,2.2264,2.2266,2.2268,2.2269,2.2398,2.24,0,0,0,0,0,0,2.2237,2.2239,2.228,2.2281,2.2242,2.225,2.2251,2.2263,2.2264,2.2262,2.2249,2.2246,2.2261,2.2264,2.2267,2.2329,2.2267,2.2269,2.227,2.2396,2.2399,2.2401,0,0,0,0,0,0,2.2236,2.2241,2.228,2.2259,2.2263,2.2253,2.2267,2.2264,2.2271,2.2264,2.2262,2.2259,2.226,2.2264,2.2299,2.2328,2.227,2.2272,2.2394,2.2397,2.24,2.2452,0,0,0,0,0,0,2.2234,2.2241,2.226,2.226,2.2265,2.2312,2.2269,2.2266,2.2275,2.227,2.2273,2.2271,2.2259,2.2296,2.2302,2.233,2.2274,2.2391,2.2395,2.2399,2.2448,2.2457,2.2464,0,0,0,0,0,2.2233,2.2275,2.2262,2.2267,2.2289,2.2314,2.2316,2.2301,2.2277,2.2297,2.2293,2.2271,2.2324,2.23,2.2306,2.2336,2.2389,2.2394,2.2399,2.2444,2.2455,2.2464,0,0,0,0,0,0,2.2279,2.2274,2.226,2.2303,2.2309,2.2306,2.2331,2.2313,2.2326,2.2321,2.2302,2.2303,2.2342,2.2342,2.2316,2.2387,2.2353,2.2359,2.2385,2.2396,2.2404,2.2403,2.2276,0,0,0,0,0,2.2295,2.2315,2.231,2.2348,2.2352,2.2341,2.2352,2.2339,2.2345,2.2347,2.2346,2.2352,2.2371,2.2383,2.2399,2.2448,2.2448,2.2471,2.2479,2.2486,2.2492,2.2518,2.2529,2.2416,2.2416,2.2416,0,0,2.2327,2.2326,2.234,2.2358,2.2361,2.2383,2.2344,2.2369,2.2385,2.2351,2.2385,2.2384,2.239,2.2433,2.2451,2.2434,2.2523,2.2492,2.2498,2.25,2.2524,2.2535,2.2544,2.242,2.2419,2.2419,0,0,2.2396,2.2398,2.243,2.2435,2.244,2.2432,2.244,2.2441,2.2439,2.2472,2.2448,2.2467,2.2498,2.2504,2.2511,2.2583,2.2564,2.2589,2.2632,2.2658,2.2667,2.2675,2.2702,2.2711,2.2595,2.2595,2.2595,0,2.2435,2.2467,2.245,2.2476,2.2485,2.2455,2.2489,2.2494,2.2504,2.2511,2.2492,2.2531,2.2533,2.2577,2.2594,2.2601,2.261,2.2589,2.2667,2.2675,2.2682,2.2707,2.2717,2.2598,2.2597,2.2597,2.2597,0,2.2515,2.2538,2.2564,2.2575,2.2586,2.2616,2.2604,2.2617,2.2604,2.2599,2.2634,2.2635,2.2652,2.2661,2.2648,2.2703,2.2693,2.2671,2.2636,2.2696,2.272,2.2729,2.2602,2.2601,2.26,2.2599,0,0,2.2615,2.2616,2.2626,2.2631,2.2635,2.2652,2.2681,2.2697,2.2709,2.2718,2.2742,2.277,2.2749,2.2757,2.2745,2.2768,2.2826,2.2743,2.2743,2.2759,2.2888,2.2905,2.2916,2.2813,2.2815,2.2816,2.2888,0,2.2684,2.2733,2.2718,2.2768,2.2789,2.2761,2.2786,2.2792,2.2788,2.2805,2.2801,2.2821,2.2792,2.2797,2.2818,2.2815,2.2852,2.2809,2.2836,2.2837,2.2836,2.2928,2.2947,2.3014,2.2897,2.2898,2.2899,0,2.2771,2.2783,2.2835,2.2835,2.2844,2.2867,2.288,2.2897,2.2903,2.2899,2.2908,2.2891,2.292,2.2885,2.2925,2.2896,2.2907,2.2907,2.2909,2.2911,2.2873,2.2934,2.3035,2.3046,2.2913,2.2912,2.2911,0,2.2839,2.2868,2.2903,2.2908,2.291,2.2927,2.2928,2.2932,2.2943,2.2955,2.2962,2.2977,2.2986,2.2999,2.2987,2.2962,2.3029,2.2993,2.3027,2.3027,2.3043,2.3042,2.3147,2.3048,2.3048,2.3048,2.3047,0,2.2918,2.2951,2.2934,2.2955,2.2992,2.2974,2.3011,2.301,2.3013,2.3035,2.3011,2.3032,2.3015,2.3034,2.3025,2.306,2.3064,2.3061,2.3059,2.3064,2.3064,2.3071,2.3066,2.305,2.305,2.3049,2.3049,0,2.3001,2.2991,2.3027,2.3026,2.3026,2.3053,2.3052,2.3073,2.3067,2.3094,2.3099,2.309,2.3112,2.3101,2.3123,2.3117,2.3163,2.3153,2.3161,2.3159,2.3194,2.3191,2.3308,2.3323,2.3213,2.3214,2.3215,0,2.3052,2.3077,2.3079,2.3091,2.3094,2.3114,2.3125,2.3109,2.3122,2.3131,2.315,2.3169,2.3184,2.322,2.3216,2.3233,2.3224,2.3264,2.3227,2.3232,2.3226,2.3225,2.3228,2.3272,2.3273,2.3274,2.3275,0,2.3145,2.3139,2.3155,2.317,2.3184,2.3195,2.3204,2.3215,2.32,2.3215,2.3236,2.3248,2.3271,2.3291,2.3306,2.3308,2.3289,2.3286,2.3295,2.3302,2.3305,2.3305,2.3182,2.3284,2.3283,2.3282,2.3282,2.3282,2.3214,2.3235,2.324,2.3259,2.3264,2.3273,2.3293,2.3289,2.3307,2.3324,2.3313,2.3339,2.3345,2.3363,2.3368,2.3388,2.3372,2.3385,2.3389,2.3392,2.3397,2.3301,2.3391,2.339,2.339,2.339,2.339,0,2.3307,2.3308,2.3326,2.3339,2.3355,2.3335,2.3345,2.3359,2.3382,2.3388,2.3403,2.3429,2.3448,2.3446,2.3463,2.348,2.3472,2.3486,2.3485,2.3486,2.341,2.3401,2.3492,2.3492,2.3492,2.3492,2.3492,2.3492,2.3357,2.3391,2.3386,2.3423,2.3424,2.3449,2.3456,2.3465,2.347,2.3499,2.3515,2.3513,2.3517,2.3535,2.3552,2.3551,2.3559,2.3576,2.3572,2.3501,2.3491,2.3481,2.3473,2.3577,2.3577,2.3646,2.3646,2.3647]}]]